When you browse on this site, cookies collect data to enhance your experience and personalize the content and advertising you see.
Visit our Privacy Policy to learn more. By continuing to use the site, you agree to this use of cookies and data.
  • In Czech Republic
  • List of Countries
  • For 7 days
  • Water Temperature
  • Satellite Maps
  • Weather Map
  • Weather Widgets
  • user-avatar
    Login

    Hourly Weather Konakry

    Today, 16 July, Tuesday

    Time Temperature Precipitation Wind Pressure Humidity
    00:00 +27°C° 1.2 mm 3 mps 756 mmHg 89%
    01:00 +27°C° 1.2 mm 3 mps 756 mmHg 88%
    02:00 +27°C° 1.2 mm 3 mps 755 mmHg 88%
    03:00 +27°C° 1.2 mm 3 mps 755 mmHg 89%
    04:00 +26°C° 1.2 mm 3 mps 755 mmHg 89%
    05:00 +26°C° 0 mm 3 mps 755 mmHg 90%
    06:00 +27°C° 0.8 mm 3 mps 756 mmHg 88%
    07:00 +27°C° 0.8 mm 3 mps 756 mmHg 86%
    08:00 +28°C° 0.8 mm 3 mps 756 mmHg 84%
    09:00 +28°C° 0.5 mm 4 mps 756 mmHg 82%
    10:00 +29°C° 0.5 mm 4 mps 756 mmHg 81%
    11:00 +29°C° 0.5 mm 5 mps 756 mmHg 80%
    12:00 +29°C° 0.4 mm 5 mps 756 mmHg 79%
    13:00 +29°C° 0.4 mm 5 mps 755 mmHg 79%
    14:00 +29°C° 0.4 mm 6 mps 755 mmHg 79%
    15:00 +29°C° 0.5 mm 6 mps 755 mmHg 80%
    16:00 +28°C° 0.5 mm 6 mps 755 mmHg 82%
    17:00 +28°C° 0.5 mm 6 mps 755 mmHg 84%
    18:00 +28°C° 1 mm 5 mps 756 mmHg 86%
    19:00 +27°C° 1 mm 5 mps 756 mmHg 87%
    20:00 +27°C° 1 mm 5 mps 757 mmHg 88%
    21:00 +27°C° 1.8 mm 5 mps 757 mmHg 89%
    22:00 +27°C° 1.8 mm 5 mps 757 mmHg 89%
    23:00 +27°C° 1.8 mm 5 mps 758 mmHg 90%

    Tomorrow, 17 July, Wednesday

    Time Temperature Precipitation Wind Pressure Humidity
    00:00 +26°C° 2.4 mm 5 mps 757 mmHg 90%
    01:00 +26°C° 2.4 mm 4 mps 757 mmHg 91%
    02:00 +26°C° 2.4 mm 4 mps 757 mmHg 92%
    03:00 +26°C° 2.2 mm 3 mps 757 mmHg 91%
    04:00 +26°C° 2.2 mm 3 mps 757 mmHg 91%
    05:00 +26°C° 2.2 mm 3 mps 757 mmHg 90%
    06:00 +27°C° 1.4 mm 3 mps 757 mmHg 89%
    07:00 +27°C° 1.4 mm 3 mps 758 mmHg 87%
    08:00 +27°C° 1.4 mm 3 mps 758 mmHg 86%
    09:00 +28°C° 1.3 mm 3 mps 758 mmHg 83%
    10:00 +28°C° 1.3 mm 4 mps 758 mmHg 81%
    11:00 +29°C° 1.3 mm 4 mps 758 mmHg 79%
    12:00 +29°C° 0.8 mm 5 mps 758 mmHg 79%
    13:00 +29°C° 0.8 mm 5 mps 757 mmHg 79%
    14:00 +29°C° 0.8 mm 6 mps 757 mmHg 79%
    15:00 +29°C° 0.6 mm 6 mps 757 mmHg 80%
    16:00 +28°C° 0.6 mm 5 mps 757 mmHg 81%
    17:00 +28°C° 0.6 mm 5 mps 756 mmHg 82%
    18:00 +28°C° 0.5 mm 4 mps 757 mmHg 83%
    19:00 +27°C° 0.5 mm 4 mps 758 mmHg 84%
    20:00 +27°C° 0.5 mm 3 mps 758 mmHg 85%
    21:00 +27°C° 1 mm 3 mps 758 mmHg 85%
    22:00 +27°C° 1 mm 3 mps 759 mmHg 86%
    23:00 +27°C° 1 mm 3 mps 759 mmHg 87%

    Day after tomorrow, 18 July, Thursday

    Time Temperature Precipitation Wind Pressure Humidity
    00:00 +26°C° 2 mm 3 mps 758 mmHg 88%
    01:00 +26°C° 2 mm 2 mps 758 mmHg 89%
    02:00 +26°C° 2 mm 2 mps 757 mmHg 90%
    03:00 +26°C° 1.9 mm 2 mps 757 mmHg 90%
    04:00 +26°C° 1.9 mm 2 mps 757 mmHg 90%
    05:00 +26°C° 1.9 mm 2 mps 757 mmHg 90%
    06:00 +26°C° 2.4 mm 2 mps 757 mmHg 89%
    07:00 +26°C° 2.4 mm 2 mps 758 mmHg 89%
    08:00 +26°C° 2.4 mm 2 mps 758 mmHg 89%
    09:00 +27°C° 1.3 mm 2 mps 758 mmHg 88%
    10:00 +27°C° 1.3 mm 3 mps 758 mmHg 88%
    11:00 +27°C° 1.3 mm 4 mps 758 mmHg 88%
    12:00 +27°C° 0.7 mm 4 mps 758 mmHg 87%
    13:00 +27°C° 0.7 mm 5 mps 757 mmHg 86%
    14:00 +27°C° 0.7 mm 5 mps 757 mmHg 85%
    15:00 +27°C° 0.5 mm 5 mps 757 mmHg 85%
    16:00 +27°C° 0.5 mm 5 mps 757 mmHg 85%
    17:00 +27°C° 0.5 mm 5 mps 757 mmHg 85%
    18:00 +27°C° 0.6 mm 5 mps 757 mmHg 87%
    19:00 +27°C° 0.6 mm 5 mps 758 mmHg 88%
    20:00 +26°C° 0.6 mm 5 mps 758 mmHg 90%
    21:00 +26°C° 0.9 mm 5 mps 758 mmHg 90%
    22:00 +26°C° 0.9 mm 5 mps 758 mmHg 91%
    23:00 +26°C° 0.9 mm 4 mps 758 mmHg 92%

    19 July, Friday

    Time Temperature Precipitation Wind Pressure Humidity
    00:00 +26°C° 0.7 mm 4 mps 758 mmHg 92%
    01:00 +26°C° 0.7 mm 4 mps 757 mmHg 92%
    02:00 +26°C° 0.7 mm 3 mps 757 mmHg 91%
    03:00 +26°C° 1.3 mm 3 mps 757 mmHg 91%
    04:00 +26°C° 1.3 mm 3 mps 757 mmHg 91%
    05:00 +26°C° 1.3 mm 3 mps 756 mmHg 90%
    06:00 +26°C° 1.7 mm 2 mps 757 mmHg 91%
    07:00 +26°C° 1.7 mm 2 mps 757 mmHg 91%
    08:00 +26°C° 1.7 mm 2 mps 758 mmHg 91%
    09:00 +26°C° 2.7 mm 2 mps 758 mmHg 91%
    10:00 +26°C° 2.7 mm 3 mps 758 mmHg 91%
    11:00 +26°C° 2.7 mm 3 mps 758 mmHg 90%
    12:00 +26°C° 2.2 mm 3 mps 758 mmHg 90%
    13:00 +26°C° 2.2 mm 3 mps 757 mmHg 90%
    14:00 +26°C° 2.2 mm 4 mps 756 mmHg 90%
    15:00 +26°C° 0.4 mm 3 mps 756 mmHg 90%
    16:00 +26°C° 0.4 mm 3 mps 756 mmHg 89%
    17:00 +26°C° 0.4 mm 3 mps 756 mmHg 89%
    18:00 +26°C° 0 mm 3 mps 756 mmHg 89%
    19:00 +26°C° 0 mm 3 mps 757 mmHg 90%
    20:00 +26°C° 0 mm 3 mps 757 mmHg 91%
    21:00 +26°C° 0 mm 2 mps 757 mmHg 90%
    22:00 +26°C° 0 mm 2 mps 757 mmHg 90%
    23:00 +25°C° 0 mm 2 mps 757 mmHg 89%

    20 July, Saturday

    Time Temperature Precipitation Wind Pressure Humidity
    00:00 +25°C° 0.6 mm 2 mps 757 mmHg 89%
    01:00 +25°C° 0.6 mm 2 mps 756 mmHg 89%
    02:00 +25°C° 0.6 mm 2 mps 756 mmHg 89%
    03:00 +25°C° 0.9 mm 2 mps 756 mmHg 89%
    04:00 +25°C° 0.9 mm 1 mps 756 mmHg 89%
    05:00 +25°C° 0.9 mm 1 mps 756 mmHg 89%
    06:00 +26°C° 0.4 mm 1 mps 756 mmHg 88%
    07:00 +26°C° 0.4 mm 1 mps 757 mmHg 86%
    08:00 +27°C° 0.4 mm 1 mps 757 mmHg 85%
    09:00 +27°C° 0.3 mm 1 mps 757 mmHg 81%
    10:00 +28°C° 0.3 mm 2 mps 757 mmHg 77%
    11:00 +29°C° 0.3 mm 2 mps 757 mmHg 73%
    12:00 +29°C° 0.3 mm 2 mps 756 mmHg 73%
    13:00 +30°C° 0.3 mm 3 mps 756 mmHg 72%
    14:00 +30°C° 0.3 mm 3 mps 755 mmHg 71%
    15:00 +29°C° 0.1 mm 3 mps 755 mmHg 73%
    16:00 +29°C° 0.1 mm 3 mps 755 mmHg 75%
    17:00 +29°C° 0.1 mm 3 mps 755 mmHg 77%
    18:00 +28°C° 0.3 mm 3 mps 756 mmHg 79%
    19:00 +27°C° 0.3 mm 3 mps 756 mmHg 81%
    20:00 +27°C° 0.3 mm 2 mps 757 mmHg 84%
    21:00 +27°C° 0.7 mm 2 mps 757 mmHg 85%
    22:00 +27°C° 0.7 mm 2 mps 757 mmHg 86%
    23:00 +26°C° 0.7 mm 2 mps 757 mmHg 88%

    21 July, Sunday

    Time Temperature Precipitation Wind Pressure Humidity
    00:00 +26°C° 1.5 mm 2 mps 757 mmHg 89%
    01:00 +26°C° 1.5 mm 2 mps 756 mmHg 89%
    02:00 +26°C° 1.5 mm 3 mps 756 mmHg 90%
    03:00 +26°C° 2 mm 2 mps 756 mmHg 91%
    04:00 +26°C° 2 mm 2 mps 756 mmHg 91%
    05:00 +26°C° 2 mm 2 mps 756 mmHg 92%
    06:00 +26°C° 1.5 mm 2 mps 757 mmHg 90%
    07:00 +26°C° 1.5 mm 2 mps 757 mmHg 89%
    08:00 +27°C° 1.5 mm 2 mps 757 mmHg 88%
    09:00 +27°C° 0.5 mm 2 mps 757 mmHg 87%
    10:00 +27°C° 0.5 mm 2 mps 757 mmHg 85%
    11:00 +27°C° 0.5 mm 2 mps 757 mmHg 84%
    12:00 +28°C° 0.2 mm 3 mps 757 mmHg 82%
    13:00 +28°C° 0.2 mm 3 mps 756 mmHg 79%
    14:00 +29°C° 0.2 mm 4 mps 756 mmHg 77%
    15:00 +29°C° 0 mm 4 mps 756 mmHg 78%
    16:00 +28°C° 0 mm 4 mps 756 mmHg 79%
    17:00 +28°C° 0 mm 4 mps 756 mmHg 80%
    18:00 +28°C° 0.1 mm 4 mps 756 mmHg 82%
    19:00 +27°C° 0.1 mm 4 mps 757 mmHg 84%
    20:00 +27°C° 0.1 mm 4 mps 757 mmHg 86%
    21:00 +27°C° 0.1 mm 3 mps 757 mmHg 86%
    22:00 +27°C° 0.1 mm 3 mps 757 mmHg 87%
    23:00 +27°C° 0.1 mm 2 mps 758 mmHg 87%
    Show more